NOAA 16 DEB, 41243

Orbit data source: Space-Track

NOAA 16 DEB, 41243 is space debris in SSO originally from a launch on Thu, 21 Sep 2000 UTC launched from the Air Force Western Test Range (AFWTR). Debris objects in space refer to the collection of defunct objects orbiting the Earth. Examples of debris include non-operational satellites, rocket bodies, and fragments generated from explosions, collisions, or faulty payload assembly.

Loading next visibility...
Identifier
41243, 2000-055ET
Orbit
SSO
Country
Flag of USUS
Related business
Manufacturer
Unknown
Mission
Spacecraft
Bus & Motor
Unknown
Mass
Unknown
Launch date (UTC)
2000-09-21 (25 years ago)
Launch vehicle
Unknown
Launch site
Air Force Western Test Range (AFWTR)
Object type
Payload
Rocket body
Debris
Shape & HBR
Unknown
Radar Cross Section
Small (<0.1 m²)

Expand to show TLE details & history
Last TLE update: 3 days ago

TLE from 3 days ago
0 NOAA 16 DEB
1 41243U 00055ET  25258.17102336  .00005148  00000-0  21710-2 0  9990
2 41243  98.7384 337.1062 0005531 140.2130 219.9457 14.26076214500917
Epoch: 2025-09-15T04:06Z
TLE epoch observation values (Epoch: 2025-09-15T04:06:16.418Z)
Latitude
0.00007°
Longitude
-78.84173°
Altitude
810.846 km
Speed
7.446 km/s
True Right ascension
22h 28m 25s
True Declination
0° 00' 00"
Sunlit
Object was in full shadow at epoch
Visualization orbit readout
Latitude
Unknown
Longitude
Unknown
Altitude
Unknown
Speed
Unknown
Apparent Right ascension
Unknown
Apparent Declination
Unknown
Sunlit
N/A
Visualization observer readout
Local Sidereal Time
15:29:39
Azimuth
Unknown
Elevation
Unknown
Doppler factor
Unknown
Orbital elements
Apogee altitude
806 km
Perigee altitude
798.057 km
Semi-major axis
7,180.165 km
Eccentricity
0.00055
Inclination
98.7384°
RAAN
337.1062°
Arg. of periapsis
140.213°
True anomaly
219.90503°
Mean anomaly
219.9457°
Eccentric anomaly
219.92536°
Mean motion
3.56732 °/min
Orbital period
100.92 mins
BSTAR
0.002171
Loading maneuver chart data...
Computing Atmospheric mass density...
Loading historical data...
Loading historical data...
Loading historical data...
Loading historical data...
Loading historical data...
Loading historical data...
Loading historical data...

Documentation

Showing up to 5 results
|